Home   Weather   Florø   Past weeks

Flag for Norway Past Weather in Florø, Norway — Yesterday and Last 2 Weeks

Now
43 °F

Partly cloudy.


Feels Like: 35 °F
Forecast: 37 / 41 °F
Wind: 16 mph from South

Location: Floro

Current Time: Jan 22, 2017 at 1:08:05 am

Latest Report: Jan 22, 2017 at 12:20 am


Visibility: 6 mi

Pressure: 30.30 "Hg

Humidity: 87%

Dew Point: 39 °F

Location of FlorøLocation

Past Weather in Florø — Graph

°F

Florø Temperature Yesterday

Maximum temperature yesterday: 46 °F (at 12:20 am)
Minimum temperature yesterday: 43 °F (at 7:20 am)
Average temperature yesterday: 44 °F

High & Low Weather Summary for the Past Weeks

 TemperatureHumidityPressure
High46 °F (Jan 8, 12:20 pm)100% (Jan 8, 3:50 pm)30.45 "Hg (Jan 8, 3:50 pm)
Low25 °F (Jan 15, 9:50 am)48% (Jan 16, 2:50 pm)28.65 "Hg (Jan 11, 8:20 am)
Average40 °F86%29.84 "Hg
* Reported Jan 6 11:20 pm — Jan 21 11:50 pm, Florø, Weather by CustomWeather, © 2017

Note: Actual official high and low records may vary slightly from our data, if they occured in-between our weather recording intervals... More about our weather records

Advertising

Florø Weather History for the Previous 24 Hours

Scroll right to see more
 ConditionsComfort  
Time TempWeatherWind HumidityBarometerVisibility
11:50 pm
Sat, Jan 21
43 °FOvercast.16 mph87%30.30 "HgN/A
11:20 pm43 °FOvercast.15 mph93%30.30 "HgN/A
10:50 pm43 °FOvercast.14 mph93%30.30 "HgN/A
10:20 pm43 °FMostly cloudy.10 mph93%30.30 "HgN/A
9:50 pm43 °FOvercast.12 mph93%30.30 "HgN/A
9:20 pm43 °FOvercast.12 mph93%30.30 "HgN/A
8:50 pm45 °FOvercast.10 mph81%30.30 "HgN/A
8:20 pm45 °FOvercast.13 mph81%30.30 "HgN/A
7:50 pm45 °FOvercast.12 mph87%30.30 "HgN/A
7:20 pm45 °FOvercast.10 mph87%30.33 "HgN/A
6:50 pm45 °FOvercast.10 mph93%30.33 "HgN/A
6:20 pm45 °FOvercast.13 mph93%30.33 "HgN/A
5:50 pm43 °FOvercast.9 mph93%30.33 "HgN/A
5:20 pm43 °FPartly cloudy.12 mph93%30.36 "HgN/A
4:50 pm43 °FPartly cloudy.10 mph100%30.36 "HgN/A
4:20 pm43 °FPartly cloudy.10 mph93%30.36 "HgN/A
3:50 pm43 °FBroken clouds.10 mph100%30.36 "HgN/A
3:20 pm43 °FBroken clouds.10 mph100%30.36 "HgN/A
2:50 pm43 °FBroken clouds.10 mph100%30.39 "HgN/A
2:20 pm43 °FBroken clouds.9 mph100%30.39 "HgN/A
1:50 pm43 °FOvercast.9 mph100%30.39 "HgN/A
1:20 pm43 °FMostly cloudy.8 mph100%30.39 "HgN/A
12:50 pm43 °FOvercast.9 mph100%30.39 "HgN/A
12:20 pm45 °FMore clouds than sun.10 mph93%30.42 "HgN/A
11:50 am43 °FCloudy.12 mph100%30.42 "HgN/A
11:20 am43 °FBroken clouds.10 mph100%30.42 "HgN/A
10:50 am43 °FBroken clouds.10 mph100%30.42 "HgN/A
10:20 am43 °FPartly sunny.10 mph100%30.42 "HgN/A
9:50 am43 °FBroken clouds.8 mph100%30.42 "HgN/A
9:20 am43 °FPartly cloudy.8 mph100%30.42 "HgN/A
8:50 am43 °FPassing clouds.6 mph100%30.42 "HgN/A
8:20 am43 °FPartly cloudy.6 mph100%30.42 "HgN/A
7:50 am43 °FPartly cloudy.7 mph100%30.42 "HgN/A
7:20 am43 °FSprinkles. Mostly cloudy.7 mph100%30.42 "HgN/A
6:50 am45 °FSprinkles. Passing clouds.7 mph93%30.42 "HgN/A
6:20 am45 °FSprinkles. Overcast.7 mph93%30.42 "HgN/A
5:50 am45 °FSprinkles. Overcast.7 mph93%30.42 "Hg5 mi
5:20 am45 °FSprinkles. Mostly cloudy.9 mph93%30.42 "Hg4 mi
4:50 am45 °FSprinkles. Low clouds.12 mph93%30.42 "Hg4 mi
4:20 am45 °FSprinkles. Fog.6 mph93%30.45 "Hg2 mi
3:50 am45 °FDrizzle. Fog.8 mph93%30.45 "Hg4 mi
3:20 am45 °FDrizzle. Low clouds.7 mph93%30.45 "Hg3 mi
2:50 am45 °FSprinkles. Mostly cloudy.9 mph93%30.45 "Hg2 mi
2:20 am45 °FLight fog.9 mph93%30.45 "Hg6 mi
1:50 am45 °FSprinkles. Mostly cloudy.7 mph93%30.45 "HgN/A
1:20 am45 °FMostly cloudy.13 mph93%30.45 "HgN/A
Weather by CustomWeather, © 2017

See weather overviewHow to use our weather pages